Temp
-11 -11 -11 -11 -11 -11 -12 -12 -12 -11 -11 -11 -11 -11 -10 -10 -10 -10 -10 -10 -10 -9 -9 -9 -9 -9 -9 -10 -10 -9 -9 -10 -11 -11 -11 -12 -13 -13 -12 -13 -13 -12 -12 -12 -11 -11 -11
-12 -12 -12 -11 -11 -11 -11 -11 -12 -11 -11 -11 -11 -11 -11 -11 -11 -10 -10 -10 -10 -10 -10 -10 -10 -9 -9 -10 -10 -10 -10 -11 -11 -11 -12 -13 -13 -13 -13 -13 -13 -13 -13 -12 -12 -12 -11
-12 -12 -12 -12 -12 -12 -11 -11 -11 -12 -12 -12 -12 -11 -11 -11 -10 -10 -10 -10 -10 -10 -10 -10 -10 -10 -10 -11 -10 -11 -12 -12 -12 -12 -13 -13 -14 -13 -14 -14 -13 -13 -13 -13 -13 -13 -12
-12 -12 -12 -12 -12 -12 -12 -12 -12 -12 -12 -12 -13 -12 -12 -11 -11 -11 -11 -11 -11 -11 -11 -11 -11 -11 -11 -12 -12 -12 -12 -13 -13 -13 -14 -14 -14 -14 -15 -14 -14 -14 -13 -13 -14 -15 -14
-12 -12 -12 -12 -12 -12 -13 -13 -13 -13 -13 -13 -13 -13 -12 -12 -12 -12 -12 -11 -12 -12 -12 -12 -12 -12 -12 -12 -13 -14 -14 -15 -14 -14 -14 -14 -14 -15 -15 -15 -15 -14 -14 -15 -15 -16 -16
-13 -13 -13 -13 -13 -13 -13 -13 -13 -13 -14 -14 -14 -14 -13 -13 -13 -13 -13 -13 -13 -13 -13 -13 -13 -13 -13 -14 -15 -15 -15 -15 -15 -15 -15 -15 -15 -15 -15 -15 -15 -17 -17 -17 -17 -18 -15
-14 -13 -13 -13 -14 -13 -13 -13 -13 -13 -13 -14 -14 -14 -14 -14 -14 -14 -14 -14 -14 -15 -14 -14 -14 -15 -15 -15 -16 -16 -15 -16 -16 -16 -16 -16 -16 -16 -17 -16 -16 -17 -16 -16 -17 -19 -18
-14 -14 -14 -14 -14 -14 -14 -14 -14 -13 -13 -14 -14 -14 -14 -15 -15 -15 -16 -16 -16 -15 -15 -16 -16 -16 -16 -16 -16 -16 -16 -16 -16 -17 -16 -16 -16 -17 -17 -17 -16 -17 -18 -18 -19 -19 -19
-14 -14 -14 -14 -14 -15 -14 -14 -15 -15 -14 -15 -15 -15 -15 -15 -16 -16 -16 -16 -16 -17 -17 -16 -17 -17 -17 -17 -17 -17 -17 -17 -17 -17 -17 -17 -17 -16 -17 -18 -18 -20 -20 -19 -19 -19 -18
-15 -15 -15 -15 -15 -14 -15 -15 -15 -15 -16 -16 -15 -16 -16 -16 -17 -17 -17 -17 -17 -18 -18 -17 -17 -17 -17 -18 -18 -17 -17 -17 -18 -17 -17 -17 -17 -17 -18 -18 -19 -19 -20 -20 -20 -20 -19
-16 -16 -15 -16 -16 -16 -16 -16 -16 -16 -16 -16 -16 -16 -16 -17 -17 -17 -17 -18 -18 -18 -19 -18 -18 -18 -18 -18 -18 -17 -18 -18 -18 -18 -18 -18 -18 -18 -18 -18 -19 -19 -20 -20 -20 -20 -19
-17 -17 -17 -16 -17 -17 -17 -16 -17 -16 -16 -17 -17 -17 -17 -17 -17 -18 -18 -18 -19 -19 -19 -19 -19 -19 -19 -19 -19 -19 -18 -19 -19 -19 -18 -18 -19 -18 -19 -19 -19 -20 -20 -20 -20 -20 -19
-17 -17 -17 -17 -17 -17 -17 -17 -17 -17 -17 -17 -17 -18 -18 -19 -19 -19 -19 -19 -19 -20 -19 -19 -19 -20 -19 -19 -20 -19 -19 -19 -19 -19 -19 -19 -19 -19 -19 -19 -19 -20 -20 -20 -20 -19 -18
-18 -18 -18 -18 -18 -18 -18 -18 -18 -18 -18 -17 -18 -19 -19 -20 -20 -20 -20 -20 -20 -20 -20 -20 -20 -20 -20 -20 -20 -20 -20 -20 -20 -21 -19 -22 -22 -20 -19 -19 -20 -19 -20 -20 -20 -19 -18
-19 -18 -18 -18 -18 -18 -18 -18 -18 -18 -18 -19 -20 -21 -21 -21 -21 -21 -21 -20 -20 -20 -20 -20 -21 -20 -21 -20 -20 -20 -21 -21 -22 -21 -22 -21 -22 -21 -20 -20 -20 -20 -20 -20 -20 -19 -19
-19 -19 -19 -19 -18 -18 -18 -18 -18 -19 -20 -21 -22 -22 -22 -22 -22 -21 -21 -21 -21 -21 -21 -21 -21 -21 -21 -21 -21 -21 -22 -22 -22 -22 -22 -22 -21 -21 -21 -21 -20 -20 -20 -19 -20 -19 -19
-19 -19 -19 -19 -19 -19 -19 -19 -19 -21 -21 -23 -23 -23 -23 -22 -22 -22 -22 -21 -22 -21 -21 -21 -21 -22 -22 -22 -22 -23 -23 -23 -23 -23 -23 -23 -23 -22 -22 -20 -20 -20 -19 -19 -19 -19 -19
-20 -19 -19 -19 -19 -19 -20 -20 -21 -23 -24 -24 -24 -23 -23 -23 -22 -22 -22 -22 -22 -22 -22 -22 -22 -22 -22 -23 -24 -24 -24 -24 -24 -23 -23 -23 -22 -22 -22 -21 -21 -20 -19 -19 -19 -19 -19
-20 -20 -20 -20 -20 -21 -22 -23 -24 -25 -25 -24 -24 -23 -23 -23 -23 -23 -22 -22 -22 -22 -22 -22 -23 -24 -25 -26 -26 -26 -26 -26 -26 -25 -24 -23 -23 -23 -23 -21 -21 -20 -20 -19 -19 -19 -19
-20 -20 -20 -21 -22 -23 -24 -24 -25 -25 -25 -24 -24 -24 -23 -23 -23 -23 -23 -23 -23 -23 -23 -24 -25 -26 -26 -27 -27 -27 -27 -27 -26 -26 -25 -24 -24 -23 -22 -21 -21 -21 -20 -20 -19 -19 -20
-21 -21 -21 -23 -23 -24 -25 -26 -25 -25 -25 -24 -24 -24 -24 -24 -23 -23 -23 -23 -23 -24 -25 -25 -25 -25 -26 -26 -26 -26 -26 -26 -26 -26 -25 -24 -23 -23 -22 -21 -21 -21 -20 -20 -20 -20 -20
-22 -22 -23 -24 -25 -25 -26 -25 -25 -25 -25 -24 -24 -24 -24 -24 -24 -24 -24 -24 -25 -25 -25 -25 -25 -25 -25 -26 -26 -26 -26 -26 -26 -26 -25 -25 -23 -23 -23 -22 -22 -22 -21 -21 -21 -21 -20
-22 -23 -24 -25 -25 -26 -26 -25 -25 -25 -25 -25 -25 -24 -24 -24 -24 -24 -24 -25 -25 -25 -25 -25 -25 -26 -26 -26 -26 -26 -26 -26 -26 -25 -24 -23 -23 -22 -22 -22 -22 -22 -22 -22 -22 -21 -20
-23 -24 -25 -25 -27 -26 -26 -26 -25 -25 -25 -25 -25 -25 -25 -24 -24 -24 -25 -26 -26 -26 -26 -26 -26 -26 -26 -26 -26 -26 -26 -26 -26 -25 -25 -24 -24 -23 -23 -22 -22 -22 -22 -22 -22 -21 -21
-24 -25 -25 -26 -27 -26 -26 -26 -25 -25 -25 -25 -25 -25 -25 -25 -25 -25 -25 -26 -26 -26 -26 -26 -26 -27 -27 -27 -26 -26 -26 -26 -25 -24 -25 -24 -24 -24 -23 -23 -22 -22 -22 -22 -22 -21 -21
-24 -25 -27 -27 -27 -26 -26 -26 -25 -25 -25 -25 -25 -25 -25 -25 -25 -26 -26 -26 -26 -26 -26 -27 -27 -27 -27 -27 -27 -26 -26 -26 -26 -25 -25 -24 -24 -24 -24 -23 -23 -23 -22 -23 -22 -22 -21
-25 -25 -26 -26 -26 -26 -26 -26 -26 -26 -26 -25 -26 -25 -25 -25 -26 -26 -27 -26 -26 -26 -28 -28 -28 -28 -27 -27 -27 -27 -26 -26 -26 -25 -24 -24 -24 -24 -24 -24 -23 -23 -23 -23 -22 -22 -21
-26 -26 -26 -26 -26 -26 -26 -26 -26 -26 -26 -26 -26 -26 -26 -26 -27 -27 -27 -27 -27 -29 -31 -30 -30 -29 -28 -27 -27 -26 -25 -26 -26 -25 -25 -25 -24 -24 -24 -24 -24 -23 -23 -22 -22 -22 -21
-26 -26 -26 -26 -26 -26 -26 -26 -26 -26 -26 -26 -26 -26 -26 -27 -27 -27 -28 -29 -30 -30 -31 -31 -29 -29 -28 -27 -27 -26 -26 -26 -26 -25 -25 -25 -25 -24 -24 -24 -24 -23 -22 -22 -22 -22 -21
Height
5738 5739 5740 5741 5742 5744 5744 5745 5745 5745 5744 5745 5744 5744 5744 5744 5744 5744 5743 5741 5740 5737 5735 5732 5729 5727 5725 5724 5722 5722 5721 5719 5718 5717 5717 5716 5718 5718 5718 5720 5719 5719 5721 5726 5727 5728 5729
5726 5726 5726 5728 5729 5731 5732 5733 5734 5735 5735 5733 5733 5732 5732 5733 5733 5731 5731 5729 5727 5725 5722 5719 5716 5714 5712 5711 5710 5709 5708 5707 5707 5706 5706 5705 5706 5706 5707 5707 5708 5709 5710 5710 5714 5716 5718
5714 5713 5714 5715 5715 5718 5718 5719 5719 5720 5721 5721 5720 5719 5719 5719 5721 5720 5718 5716 5714 5711 5709 5706 5704 5702 5701 5698 5698 5696 5696 5696 5695 5695 5696 5695 5693 5693 5695 5693 5695 5695 5699 5699 5703 5704 5706
5700 5699 5700 5701 5702 5702 5703 5704 5705 5705 5707 5707 5706 5705 5705 5706 5707 5706 5707 5704 5701 5698 5696 5694 5692 5691 5689 5687 5685 5685 5686 5686 5685 5685 5685 5685 5684 5684 5682 5682 5683 5686 5685 5686 5692 5690 5692
5683 5685 5686 5687 5689 5688 5689 5690 5690 5692 5693 5693 5692 5694 5693 5693 5693 5693 5693 5691 5687 5686 5684 5682 5682 5680 5679 5678 5676 5676 5675 5674 5674 5674 5674 5674 5674 5674 5672 5672 5672 5672 5675 5674 5677 5676 5678
5669 5669 5671 5672 5674 5674 5676 5677 5677 5677 5678 5678 5679 5680 5680 5680 5680 5680 5678 5676 5674 5673 5672 5672 5671 5671 5669 5667 5666 5665 5664 5664 5664 5664 5663 5664 5663 5663 5662 5661 5663 5662 5661 5664 5666 5668 5664
5654 5655 5657 5659 5661 5662 5663 5664 5665 5665 5665 5665 5666 5668 5669 5668 5666 5667 5666 5663 5664 5662 5662 5660 5661 5659 5656 5656 5655 5655 5655 5654 5654 5654 5654 5654 5654 5654 5652 5649 5650 5649 5650 5652 5656 5655 5658
5640 5640 5643 5647 5648 5650 5651 5652 5652 5653 5654 5653 5654 5657 5656 5656 5655 5654 5652 5653 5651 5651 5651 5650 5650 5649 5648 5647 5647 5647 5647 5647 5645 5646 5645 5645 5646 5645 5642 5641 5640 5639 5640 5644 5648 5649 5650
5625 5627 5628 5632 5635 5637 5639 5640 5641 5642 5641 5643 5642 5645 5646 5645 5644 5643 5643 5643 5642 5640 5641 5642 5641 5641 5641 5640 5640 5641 5641 5639 5637 5637 5637 5636 5637 5634 5637 5634 5633 5633 5634 5637 5638 5642 5643
5607 5610 5614 5619 5621 5624 5626 5629 5630 5631 5632 5632 5633 5635 5637 5637 5636 5634 5633 5633 5633 5633 5632 5634 5633 5634 5634 5631 5632 5631 5631 5631 5629 5629 5629 5629 5629 5627 5628 5626 5627 5625 5630 5629 5631 5634 5638
5592 5596 5598 5602 5606 5611 5613 5616 5620 5621 5622 5622 5623 5625 5626 5627 5627 5627 5626 5625 5626 5626 5626 5625 5626 5625 5625 5625 5622 5623 5621 5621 5621 5621 5622 5622 5619 5621 5619 5621 5619 5618 5620 5624 5626 5627 5629
5578 5583 5585 5588 5597 5596 5600 5605 5608 5611 5612 5612 5614 5616 5616 5617 5618 5619 5618 5618 5619 5620 5615 5617 5616 5616 5615 5613 5612 5612 5613 5613 5612 5611 5611 5612 5611 5612 5613 5612 5613 5613 5613 5617 5619 5621 5619
5567 5570 5575 5579 5583 5585 5589 5594 5596 5601 5601 5604 5605 5605 5608 5609 5610 5610 5610 5612 5613 5611 5610 5609 5606 5607 5605 5604 5606 5604 5601 5602 5602 5601 5602 5600 5602 5602 5605 5606 5605 5607 5608 5612 5615 5615 5617
5558 5560 5566 5572 5573 5573 5579 5584 5586 5589 5593 5595 5595 5596 5599 5601 5601 5602 5603 5605 5604 5603 5601 5600 5599 5598 5596 5595 5596 5593 5593 5592 5591 5588 5589 5592 5598 5595 5597 5599 5601 5602 5603 5606 5610 5614 5616
5549 5554 5558 5562 5561 5564 5568 5575 5577 5580 5582 5585 5587 5589 5592 5594 5596 5595 5597 5596 5595 5594 5594 5592 5591 5589 5586 5584 5586 5583 5581 5580 5579 5580 5583 5584 5590 5587 5586 5591 5595 5598 5597 5603 5600 5606 5607
5540 5545 5548 5553 5553 5557 5562 5566 5570 5573 5574 5577 5581 5585 5586 5588 5589 5589 5589 5588 5587 5585 5584 5583 5580 5579 5576 5571 5572 5570 5568 5566 5569 5570 5572 5576 5578 5582 5580 5585 5588 5590 5593 5595 5598 5600 5602
5531 5536 5540 5543 5548 5551 5554 5558 5563 5565 5567 5572 5576 5579 5581 5582 5582 5582 5581 5579 5578 5577 5575 5573 5569 5565 5562 5559 5555 5556 5555 5554 5557 5559 5563 5566 5569 5576 5576 5578 5582 5584 5587 5591 5593 5595 5597
5523 5531 5533 5538 5542 5546 5547 5551 5555 5560 5565 5569 5571 5574 5575 5574 5576 5574 5572 5571 5570 5566 5564 5559 5555 5549 5544 5540 5538 5539 5541 5542 5542 5547 5553 5557 5559 5564 5570 5573 5577 5579 5581 5584 5587 5591 5592
5519 5525 5527 5532 5536 5539 5543 5547 5551 5557 5561 5564 5566 5568 5568 5568 5567 5566 5564 5562 5559 5555 5551 5545 5539 5534 5530 5529 5528 5527 5527 5528 5528 5535 5541 5549 5552 5556 5563 5569 5570 5573 5576 5579 5582 5583 5586
5515 5519 5523 5527 5531 5534 5538 5543 5550 5553 5557 5560 5561 5563 5563 5561 5560 5557 5555 5552 5548 5544 5539 5535 5531 5528 5526 5525 5524 5524 5523 5522 5524 5526 5531 5538 5544 5550 5557 5563 5564 5568 5571 5573 5575 5578 5581
5508 5512 5516 5521 5525 5531 5535 5541 5547 5549 5552 5555 5556 5556 5556 5554 5553 5550 5547 5543 5538 5535 5533 5530 5526 5525 5523 5522 5521 5519 5518 5518 5518 5520 5524 5529 5537 5542 5549 5555 5558 5561 5563 5566 5570 5572 5574
5502 5507 5511 5516 5522 5527 5533 5539 5541 5545 5548 5550 5550 5550 5548 5547 5545 5541 5538 5535 5531 5529 5527 5524 5521 5520 5518 5516 5515 5515 5514 5514 5513 5516 5520 5527 5533 5537 5542 5545 5550 5552 5556 5559 5563 5566 5569
5497 5502 5507 5513 5518 5524 5530 5534 5537 5541 5543 5544 5543 5542 5541 5540 5537 5535 5531 5527 5524 5522 5521 5518 5516 5513 5511 5509 5509 5509 5509 5509 5510 5512 5518 5523 5526 5530 5532 5541 5547 5551 5553 5556 5559 5561 5563
5492 5497 5503 5509 5515 5521 5526 5529 5533 5536 5537 5538 5537 5535 5535 5533 5530 5527 5524 5521 5519 5517 5515 5512 5509 5505 5503 5502 5503 5504 5504 5505 5507 5510 5515 5518 5521 5524 5528 5536 5541 5545 5547 5551 5554 5557 5558
5488 5493 5499 5505 5511 5517 5521 5525 5528 5530 5531 5531 5529 5529 5528 5526 5524 5521 5517 5515 5513 5511 5507 5504 5501 5498 5496 5497 5498 5500 5502 5504 5506 5510 5511 5515 5519 5523 5528 5531 5535 5539 5543 5547 5549 5553 5554
5483 5488 5495 5500 5506 5511 5516 5519 5522 5524 5525 5524 5523 5523 5522 5520 5517 5514 5512 5509 5506 5501 5497 5493 5492 5492 5492 5494 5496 5499 5500 5503 5505 5508 5511 5514 5517 5521 5525 5528 5534 5537 5538 5543 5546 5549 5551
5479 5484 5490 5495 5502 5507 5511 5514 5517 5518 5519 5519 5518 5517 5516 5513 5511 5509 5506 5502 5496 5490 5485 5482 5483 5486 5490 5493 5495 5498 5500 5502 5505 5507 5513 5515 5517 5520 5524 5526 5531 5534 5537 5540 5543 5548 5547
5475 5480 5486 5492 5497 5501 5505 5509 5511 5512 5514 5514 5513 5512 5510 5507 5506 5503 5500 5494 5487 5479 5475 5477 5479 5483 5487 5491 5494 5494 5498 5500 5504 5507 5512 5516 5518 5520 5523 5527 5531 5533 5536 5539 5540 5541 5543
5471 5476 5482 5487 5492 5496 5500 5503 5506 5507 5508 5509 5509 5507 5504 5503 5503 5499 5494 5488 5482 5474 5471 5474 5479 5483 5487 5491 5493 5495 5497 5499 5502 5506 5509 5513 5515 5518 5523 5526 5528 5531 5533 5536 5537 5538 5539
Wind_Speed
56 57 55 54 53 51 47 49 50 51 51 50 49 50 50 49 48 48 49 51 51 51 51 51 49 48 54 51 53 53 52 52 51 49 48 42 41 43 48 48 52 56 55 56 57 56 57
58 59 57 57 56 56 56 58 58 55 53 54 54 54 56 55 51 50 51 51 50 54 53 52 50 50 55 52 52 52 53 53 52 50 48 41 41 43 46 49 51 55 55 57 55 56 56
63 63 65 64 61 64 64 60 59 59 62 58 57 57 55 55 57 56 53 54 55 55 52 46 49 54 54 49 53 52 50 50 51 50 43 38 39 42 46 50 53 55 54 57 54 55 52
67 61 63 64 67 62 62 59 62 63 61 60 57 55 56 57 55 55 55 55 54 50 47 49 52 54 53 53 54 54 53 48 47 46 41 40 39 42 47 51 53 53 56 58 54 55 55
68 71 67 65 64 63 62 60 58 59 57 55 54 53 51 50 51 53 56 54 50 48 49 50 51 51 53 51 49 44 42 39 38 38 37 38 41 42 46 49 51 55 55 51 53 55 54
69 67 63 64 62 59 58 56 57 59 57 53 49 46 44 45 47 49 48 47 48 48 47 47 48 49 46 43 38 39 37 36 35 35 36 37 40 43 46 48 50 48 50 49 45 43 56
78 69 59 58 54 55 52 50 51 51 52 52 51 51 51 46 44 44 45 43 43 42 44 43 44 40 40 33 32 32 32 31 32 33 33 35 37 38 38 44 46 55 51 49 46 45 45
78 73 72 67 63 54 52 52 52 52 54 54 53 52 46 42 40 39 37 38 41 42 39 37 36 32 31 30 29 29 30 30 30 29 33 36 37 34 37 40 41 40 38 43 37 39 44
75 79 75 69 66 64 63 54 52 50 49 51 47 45 43 40 37 36 38 38 38 35 34 34 31 29 29 29 31 31 31 31 30 32 33 35 35 39 31 36 39 34 34 35 42 40 38
68 72 66 61 61 59 52 47 47 47 47 45 44 42 43 39 37 37 36 35 33 32 33 33 31 30 30 31 31 31 30 30 30 32 35 39 40 40 34 36 35 40 29 34 31 34 33
67 63 69 59 56 46 42 42 46 45 45 44 43 40 39 38 36 35 34 32 32 31 28 32 27 28 29 32 34 34 33 34 35 36 35 35 39 38 41 34 38 39 38 35 34 36 35
63 70 55 52 45 40 41 42 40 41 41 42 42 40 38 34 35 33 33 32 30 28 31 29 31 33 34 35 36 38 39 39 40 39 38 37 36 38 35 36 37 33 34 34 30 30 36
50 46 44 42 41 38 38 38 37 41 41 42 39 34 35 33 31 31 30 30 29 27 29 33 33 33 35 40 37 42 41 42 41 42 38 39 38 39 35 35 37 35 31 29 26 30 32
37 35 40 42 37 35 39 39 39 37 39 40 35 30 31 29 26 27 27 26 27 29 29 32 33 36 38 41 40 44 43 42 39 37 39 30 25 31 35 33 32 29 35 33 22 17 14
30 35 35 34 31 31 33 36 35 37 37 33 28 24 25 23 24 23 24 25 26 29 32 34 36 39 40 44 44 44 42 40 37 36 30 27 24 33 40 31 32 28 35 24 30 24 25
29 31 30 30 29 30 29 31 34 34 29 26 21 20 20 20 22 23 24 26 30 31 33 36 38 41 42 46 46 43 43 41 35 34 32 30 32 25 35 27 28 28 23 22 26 21 23
30 29 27 27 29 30 30 31 32 28 26 19 18 17 19 20 22 23 26 29 31 33 35 39 42 45 47 47 48 45 44 42 33 36 33 31 33 26 29 26 25 24 25 24 25 23 19
25 29 27 27 28 31 28 27 26 23 16 18 17 18 19 21 23 25 28 30 33 36 39 43 45 47 48 48 49 46 44 42 36 40 35 28 33 35 32 26 23 24 23 22 28 24 24
26 29 26 28 27 27 25 25 22 17 19 17 18 19 20 22 25 27 29 32 35 39 41 41 39 34 31 28 27 26 26 29 36 36 38 31 31 31 27 27 30 19 21 21 21 23 19
29 28 28 27 27 29 29 23 19 20 19 18 19 21 22 23 25 28 31 33 37 37 31 27 24 19 17 16 17 13 17 24 20 28 33 38 35 32 26 26 27 30 28 23 24 22 20
30 29 28 29 31 28 24 20 22 20 19 19 20 22 22 24 25 28 30 34 33 26 23 21 20 19 19 17 17 19 19 17 20 25 39 38 20 34 28 24 22 29 24 29 27 25 24
29 31 32 32 30 26 21 22 22 20 21 21 21 21 23 25 26 28 31 30 26 24 22 21 22 20 17 16 21 21 21 19 18 23 26 23 17 23 29 32 31 26 25 19 19 22 25
29 31 31 32 27 23 22 23 21 21 21 20 19 22 24 25 26 28 29 24 22 20 20 23 24 22 23 23 17 20 22 22 17 23 17 19 15 13 39 30 27 25 21 21 22 25 23
32 35 34 30 25 23 24 23 23 20 20 19 19 22 23 24 26 28 26 21 21 23 24 27 27 25 24 20 20 17 20 21 16 28 15 12 13 8 28 24 29 29 29 26 25 21 19
36 34 30 28 27 28 29 22 21 20 20 20 21 22 22 24 27 26 22 21 23 27 30 31 27 21 17 17 12 13 13 13 16 25 14 14 17 12 23 22 31 32 30 26 21 17 17
36 35 32 33 34 32 28 21 21 20 20 21 21 21 21 24 25 24 21 24 29 34 38 35 24 14 12 10 7 6 5 8 7 23 9 14 15 13 24 26 17 15 18 15 15 17 14
31 34 36 34 34 31 24 21 22 21 21 20 19 19 22 25 23 21 23 28 35 37 34 28 21 13 11 13 10 2 5 7 5 14 17 15 16 16 14 16 18 18 13 14 14 15 14
27 26 31 22 24 28 22 22 23 22 20 18 17 19 22 22 19 20 26 32 33 30 18 9 7 10 18 15 6 2 5 10 8 10 21 15 15 15 17 13 14 14 13 13 11 11 14
28 28 29 30 28 24 23 24 23 21 17 17 15 18 20 16 15 22 25 22 21 14 3 15 16 12 20 11 7 11 11 12 12 13 18 22 19 17 18 17 11 10 10 7 8 10 16
Wind_Direction
266 266 266 268 269 266 267 269 270 273 273 272 272 272 271 273 277 279 282 283 282 284 286 289 288 284 288 279 272 269 268 272 275 275 276 272 266 258 257 257 253 253 252 253 254 256 258
266 268 269 270 271 267 269 272 271 273 271 270 273 277 276 277 280 280 282 285 287 291 288 287 288 286 284 280 275 273 273 275 275 275 275 276 272 264 258 257 258 258 254 252 252 254 256
268 264 270 275 274 272 272 275 271 274 281 276 275 279 278 275 279 282 283 286 291 291 290 286 285 282 278 280 274 277 280 279 278 278 278 271 266 265 260 258 256 255 257 255 251 252 251
272 268 270 269 272 269 272 271 272 276 278 279 279 276 277 279 280 282 284 289 291 288 286 284 281 277 276 279 280 281 282 284 285 283 278 275 269 263 260 261 260 259 256 254 250 250 248
270 265 270 268 265 270 272 272 276 278 275 276 277 280 280 278 277 280 285 287 286 284 282 278 277 275 277 280 282 284 284 281 279 277 276 274 270 269 264 263 262 261 260 259 250 247 247
268 266 263 265 268 267 269 271 279 280 279 281 282 281 280 280 282 283 280 280 281 280 280 280 281 281 282 284 285 283 281 279 277 273 271 272 271 270 268 267 265 262 259 255 255 252 248
264 269 272 268 269 271 273 276 276 275 280 281 283 284 287 284 279 277 277 277 278 278 278 279 282 284 289 288 288 283 279 272 272 272 275 269 272 277 277 274 263 260 255 255 249 246 249
265 271 273 271 274 272 276 274 271 273 279 277 280 284 284 280 276 274 276 276 276 278 279 279 279 279 280 281 280 277 277 276 275 276 272 274 274 276 275 277 275 255 252 250 253 255 248
262 264 269 266 270 279 278 271 269 269 270 272 274 279 279 277 273 273 276 276 278 280 280 280 279 277 276 275 275 275 275 275 278 275 274 274 277 275 279 276 271 256 255 259 247 247 250
255 257 264 266 268 273 268 270 267 266 269 270 274 272 273 267 267 271 271 275 278 279 278 275 275 277 275 272 273 276 278 281 280 277 273 268 268 272 275 274 278 256 249 252 254 251 250
252 255 260 261 263 261 258 258 262 265 266 267 266 263 260 265 269 272 273 273 274 274 274 277 276 274 272 274 280 279 283 280 275 272 270 274 268 265 270 275 272 257 243 248 248 255 252
252 254 249 254 249 245 250 255 257 261 257 258 256 257 261 265 269 271 273 276 273 272 268 269 275 278 281 281 282 282 278 277 274 270 268 267 269 267 266 268 269 256 247 253 252 252 251
238 232 240 239 237 238 244 249 249 252 254 254 253 257 263 263 267 271 273 273 273 267 276 278 282 284 284 282 283 280 282 280 279 275 269 265 263 265 259 259 267 250 248 247 252 254 259
231 231 232 234 235 239 247 247 246 248 250 253 255 255 260 264 267 269 270 271 272 275 281 284 285 284 283 280 282 282 283 283 282 274 267 258 262 276 260 256 263 261 252 243 245 250 254
246 244 244 246 237 237 235 241 242 243 245 248 247 251 258 262 266 268 271 275 280 283 284 285 286 284 285 285 281 283 279 274 265 265 256 263 248 254 258 257 247 249 246 242 240 229 227
248 244 241 241 236 237 242 241 243 244 238 238 244 248 255 263 268 274 281 284 288 290 290 290 289 288 287 285 285 278 274 269 264 257 252 247 241 247 261 260 256 249 245 240 230 238 244
238 241 235 236 241 236 235 239 241 233 232 232 236 247 261 270 277 284 289 292 294 293 296 296 294 290 286 281 276 271 268 264 257 253 250 247 238 227 260 251 250 250 237 230 236 229 228
233 234 229 229 232 236 227 227 229 227 221 231 243 255 268 278 285 292 296 298 298 300 301 299 296 291 283 275 270 266 260 255 254 247 240 238 241 231 230 246 237 242 241 239 238 241 232
231 230 226 227 229 227 216 217 215 211 228 241 253 265 277 286 295 298 300 303 305 308 307 304 300 294 286 279 274 264 254 248 249 238 224 214 235 231 228 240 232 222 226 227 225 227 222
226 226 228 226 214 210 210 207 209 220 236 247 261 272 282 293 297 301 306 310 313 313 310 310 306 299 287 278 273 254 248 245 255 227 214 213 220 230 220 229 241 237 235 237 229 232 232
227 225 220 208 213 210 196 205 220 230 240 254 268 278 291 299 301 305 311 316 316 308 304 307 303 294 285 270 262 257 262 251 262 227 203 209 220 222 223 241 227 234 231 235 227 230 231
220 220 210 209 200 191 199 214 227 235 248 261 273 287 297 302 305 312 317 317 308 304 304 301 288 281 282 274 252 254 260 262 258 222 202 217 229 214 219 224 231 237 237 229 231 236 238
216 211 207 199 190 198 210 224 232 242 253 267 285 296 298 300 308 315 317 310 305 305 302 299 295 289 272 265 269 250 256 259 268 227 172 154 144 183 215 225 228 237 232 232 232 236 238
211 203 195 193 199 207 218 226 235 246 258 273 290 298 300 306 314 318 313 303 300 301 299 301 295 285 275 270 260 259 246 255 264 228 169 137 125 165 201 204 216 220 226 229 229 236 239
209 203 200 198 207 213 221 227 238 252 268 283 295 296 300 310 315 314 305 301 300 299 300 301 295 290 268 260 254 246 247 266 237 188 153 150 149 179 185 192 195 204 210 208 212 220 230
214 202 204 208 214 222 220 232 245 258 273 289 293 296 304 312 312 307 303 303 305 304 303 299 290 278 245 235 224 227 188 251 242 214 184 186 161 155 206 222 225 204 183 191 213 223 223
224 216 214 223 223 226 220 238 251 264 279 286 290 297 307 310 306 305 308 310 310 307 297 293 285 228 200 172 157 219 230 225 217 219 206 183 159 160 175 182 191 202 187 209 228 244 239
220 224 221 227 227 225 229 243 255 267 276 281 286 301 305 305 303 309 318 319 314 307 294 260 194 187 179 177 192 125 110 190 178 188 196 183 169 161 169 170 169 178 192 216 238 252 254
216 218 224 228 224 228 237 246 256 263 269 274 285 299 301 296 306 321 329 329 330 345 202 151 134 166 176 180 181 167 162 167 174 189 194 208 205 197 196 190 184 183 197 206 242 269 259